Weather History for LKNA - November, 2013

Change the Weather History Date:

Thursday, November 28, 2013

  Actual Average Record
Temperature  
Mean Temperature 27 °F -  
Max Temperature 35 °F - - ()
Min Temperature 19 °F - - ()
Degree Days  
Heating Degree Days 38    
Moisture  
Dew Point 27 °F    
Average Humidity 90    
Maximum Humidity 100    
Minimum Humidity 80    
Precipitation  
Precipitation 0.00 in - - ()
Sea Level Pressure  
Sea Level Pressure 30.27 in    
Wind  
Wind Speed 6 mph ()    
Max Wind Speed 16 mph    
Max Gust Speed -    
Visibility 5.6 miles    
Events Rain    
T = Trace of Precipitation, MM = Missing Value Source: Averaged Metar Reports

Daily Weather History Graph

Daily Weather History Graph

Search for Another Location

Airport or City:

Trip Planner

Search our weather history database for the weather conditions in past years. The results will help you decide how hot, cold, wet, or windy it might be!

Date:

Astronomy

Nov. 28, 2013 Rise Set
Actual Time 7:24 AM CET 4:01 PM CET
Civil Twilight 6:48 AM CET 4:38 PM CET
Nautical Twilight 6:08 AM CET 5:17 PM CET
Astronomical Twilight 5:30 AM CET 5:55 PM CET
Moon 1:44 AM CET (11/28) 1:24 PM CET (11/28)
Length of Visible Light 9h 49m
Length of Day
8h 36m
Waning Crescent, 25% of the Moon is Illuminated
Nov 28
Waning Crescent
Dec 3
New
Dec 9
First Quarter
Dec 17
Full
Dec 25
Last Quarter

Hourly Weather History & Observations

Time (CET) Temp. Windchill Dew Point Humidity Pressure Visibility Wind Dir Wind Speed Gust Speed Precip Events Conditions
12:00 AM 21.2 °F 16.4 °F 17.6 °F 86% 30.39 in - West 3.5 mph - N/A   Clear
1:00 AM 21.2 °F 14.9 °F 19.4 °F 93% 30.36 in - West 4.6 mph - N/A   Clear
2:00 AM 19.4 °F 12.8 °F 15.8 °F 86% 30.36 in - WNW 4.6 mph - N/A   Clear
3:00 AM 21.2 °F 16.4 °F 17.6 °F 86% 30.36 in - WSW 3.5 mph - N/A   Clear
4:00 AM 23.0 °F 17.0 °F 19.4 °F 86% 30.33 in - West 4.6 mph - N/A   Clear
5:00 AM 23.0 °F 17.0 °F 17.6 °F 80% 30.33 in - WSW 4.6 mph - N/A   Clear
6:00 AM 23.0 °F 18.4 °F 19.4 °F 86% 30.30 in - WSW 3.5 mph - N/A   Clear
7:00 AM 24.8 °F 17.9 °F 21.2 °F 86% 30.30 in 6.2 mi West 5.8 mph - N/A   Mostly Cloudy
8:00 AM 26.6 °F 22.6 °F 23.0 °F 86% 30.30 in 6.2 mi West 3.5 mph - N/A   Mostly Cloudy
8:14 AM 26.6 °F 22.6 °F 23.0 °F 86% 30.30 in 6.2 mi West 3.5 mph - N/A   Mostly Cloudy
9:00 AM 28.4 °F 23.3 °F 24.8 °F 86% 30.30 in 6.2 mi West 4.6 mph - N/A Rain Light Freezing Rain
10:00 AM 30.2 °F 23.4 °F 28.4 °F 93% 30.30 in 4.3 mi West 6.9 mph - N/A Rain Light Freezing Rain
10:27 AM 30.2 °F 23.4 °F 30.2 °F 100% 30.30 in 6.2 mi WNW 6.9 mph - N/A   Overcast
11:00 AM 32.0 °F 25.6 °F 30.2 °F 93% 30.27 in 6.2 mi WNW 6.9 mph - N/A   Overcast
12:00 PM 32.0 °F 23.6 °F 30.2 °F 93% 30.27 in 6.2 mi West 10.4 mph - N/A   Mostly Cloudy
12:45 PM 33.8 °F 27.0 °F 30.2 °F 87% 30.24 in 6.2 mi West 8.1 mph - N/A   Overcast
1:00 PM 33.8 °F 25.8 °F 32.0 °F 93% 30.24 in 2.5 mi West 10.4 mph - N/A   Light Drizzle
2:00 PM 32.0 °F 23.0 °F 32.0 °F 100% 30.24 in 2.5 mi West 11.5 mph - N/A   Light Drizzle
2:38 PM 32.0 °F 23.0 °F 32.0 °F 100% 30.21 in 5.0 mi West 11.5 mph - N/A   Mostly Cloudy
3:00 PM 33.8 °F 24.8 °F 32.0 °F 93% 30.21 in 5.0 mi West 12.7 mph - N/A   Overcast
4:00 PM 33.8 °F 25.3 °F 30.2 °F 87% 30.21 in 5.0 mi West 11.5 mph - N/A   Overcast
4:29 PM 33.8 °F 25.3 °F 32.0 °F 93% 30.21 in 5.0 mi West 11.5 mph - N/A   Overcast
4:45 PM 32.0 °F 24.8 °F 30.2 °F 93% 30.21 in 6.2 mi WSW 8.1 mph - N/A   Overcast
5:00 PM 33.8 °F 27.7 °F 30.2 °F 87% 30.21 in 6.2 mi WSW 6.9 mph - N/A   Overcast
6:00 PM 35.6 °F 29.2 °F 32.0 °F 87% 30.21 in 6.2 mi West 8.1 mph - N/A   Overcast
7:00 PM 33.8 °F 27.7 °F 30.2 °F 87% 30.21 in 6.2 mi West 6.9 mph - N/A   Overcast
8:00 PM 33.8 °F 24.3 °F 32.0 °F 93% 30.21 in 6.2 mi WNW 13.8 mph - N/A   Overcast
9:00 PM 33.8 °F 24.8 °F 30.2 °F 87% 30.21 in 6.2 mi WNW 12.7 mph - N/A   Overcast
10:00 PM 33.8 °F 23.5 °F 30.2 °F 87% 30.21 in 6.2 mi WNW 16.1 mph - N/A   Overcast
11:00 PM 33.8 °F 23.5 °F 30.2 °F 87% 30.21 in 6.2 mi WNW 16.1 mph - N/A   Overcast